CUTE-1 (CO-55)

Last updated on Sat Oct 18 2025 00:03:14 GMT+0000 (Coordinated Universal Time)

1 27844U 03031E 25290.73536374 .00000540 00000+0 25359-3 0 9993 2 27844 98.6789 297.3553 0009870 163.3512 196.7992 14.24108777157167
UTC large
Height (km)
Speed (km/s)
/
Latitude / Longitude
Inclination (degrees)
Orbital Period (minutes)
Azimuth
Elevation
Range (km)
Doppler Factor

Next 0 passes for location: London (51.5072 / 0.1276)

Sorry there are no passes over London.